Date_Time,Julian_Date,Latitude,Longitude,Instrument_Depth,Water_Salinity
(yyyy-mm-dd hh:mn:ss UTC),(JD),(+ deg. North),(+ deg. East),(m),(ppt)
1981-06-27 22:00:00 UTC,2444783.416667,28.7317,-95.2428,0109,0.3400
1981-06-27 22:30:00 UTC,2444783.437500,28.7317,-95.2428,0109,0.3390
1981-06-27 23:00:00 UTC,2444783.458333,28.7317,-95.2428,0109,0.3390
1981-06-27 23:30:00 UTC,2444783.479167,28.7317,-95.2428,0109,0.3390
1981-06-28 00:00:00 UTC,2444783.500000,28.7317,-95.2428,0109,0.3380
1981-06-28 00:30:00 UTC,2444783.520833,28.7317,-95.2428,0109,0.3350
1981-06-28 01:00:00 UTC,2444783.541667,28.7317,-95.2428,0109,0.3310
1981-06-28 01:30:00 UTC,2444783.562500,28.7317,-95.2428,0109,0.3280
1981-06-28 02:00:00 UTC,2444783.583333,28.7317,-95.2428,0109,0.3260
1981-06-28 02:30:00 UTC,2444783.604167,28.7317,-95.2428,0109,0.3240
1981-06-28 03:00:00 UTC,2444783.625000,28.7317,-95.2428,0109,0.3200
1981-06-28 03:30:00 UTC,2444783.645833,28.7317,-95.2428,0109,0.3160
1981-06-28 04:00:00 UTC,2444783.666667,28.7317,-95.2428,0109,0.3130
1981-06-28 04:30:00 UTC,2444783.687500,28.7317,-95.2428,0109,0.3120
1981-06-28 05:00:00 UTC,2444783.708333,28.7317,-95.2428,0109,0.3110
1981-06-28 05:30:00 UTC,2444783.729167,28.7317,-95.2428,0109,0.3120
1981-06-28 06:00:00 UTC,2444783.750000,28.7317,-95.2428,0109,0.3130
1981-06-28 06:30:00 UTC,2444783.770833,28.7317,-95.2428,0109,0.3140
1981-06-28 07:00:00 UTC,2444783.791667,28.7317,-95.2428,0109,0.3130
1981-06-28 07:30:00 UTC,2444783.812500,28.7317,-95.2428,0109,0.3120
1981-06-28 08:00:00 UTC,2444783.833333,28.7317,-95.2428,0109,0.3120
1981-06-28 08:30:00 UTC,2444783.854167,28.7317,-95.2428,0109,0.3120
1981-06-28 09:00:00 UTC,2444783.875000,28.7317,-95.2428,0109,0.3120
1981-06-28 09:30:00 UTC,2444783.895833,28.7317,-95.2428,0109,0.3130
1981-06-28 10:00:00 UTC,2444783.916667,28.7317,-95.2428,0109,0.3150
1981-06-28 10:30:00 UTC,2444783.937500,28.7317,-95.2428,0109,0.3150
1981-06-28 11:00:00 UTC,2444783.958333,28.7317,-95.2428,0109,0.3160
1981-06-28 11:30:00 UTC,2444783.979167,28.7317,-95.2428,0109,0.3160
1981-06-28 12:00:00 UTC,2444784.000000,28.7317,-95.2428,0109,0.3160
1981-06-28 12:30:00 UTC,2444784.020833,28.7317,-95.2428,0109,0.3140
1981-06-28 13:00:00 UTC,2444784.041667,28.7317,-95.2428,0109,0.3140
1981-06-28 13:30:00 UTC,2444784.062500,28.7317,-95.2428,0109,0.3140
1981-06-28 14:00:00 UTC,2444784.083333,28.7317,-95.2428,0109,0.3140
1981-06-28 14:30:00 UTC,2444784.104167,28.7317,-95.2428,0109,0.3130
1981-06-28 15:00:00 UTC,2444784.125000,28.7317,-95.2428,0109,0.3140
1981-06-28 15:30:00 UTC,2444784.145833,28.7317,-95.2428,0109,0.3140
1981-06-28 16:00:00 UTC,2444784.166667,28.7317,-95.2428,0109,0.3150
1981-06-28 16:30:00 UTC,2444784.187500,28.7317,-95.2428,0109,0.3170
1981-06-28 17:00:00 UTC,2444784.208333,28.7317,-95.2428,0109,0.3200
1981-06-28 17:30:00 UTC,2444784.229167,28.7317,-95.2428,0109,0.3240
1981-06-28 18:00:00 UTC,2444784.250000,28.7317,-95.2428,0109,0.3270
1981-06-28 18:30:00 UTC,2444784.270833,28.7317,-95.2428,0109,0.3280
1981-06-28 19:00:00 UTC,2444784.291667,28.7317,-95.2428,0109,0.3280
1981-06-28 19:30:00 UTC,2444784.312500,28.7317,-95.2428,0109,0.3280
1981-06-28 20:00:00 UTC,2444784.333333,28.7317,-95.2428,0109,0.3290
1981-06-28 20:30:00 UTC,2444784.354167,28.7317,-95.2428,0109,0.3310
1981-06-28 21:00:00 UTC,2444784.375000,28.7317,-95.2428,0109,0.3340
1981-06-28 21:30:00 UTC,2444784.395833,28.7317,-95.2428,0109,0.3350
1981-06-28 22:00:00 UTC,2444784.416667,28.7317,-95.2428,0109,0.3340
1981-06-28 22:30:00 UTC,2444784.437500,28.7317,-95.2428,0109,0.3320
1981-06-28 23:00:00 UTC,2444784.458333,28.7317,-95.2428,0109,0.3290
1981-06-28 23:30:00 UTC,2444784.479167,28.7317,-95.2428,0109,0.3280
1981-06-29 00:00:00 UTC,2444784.500000,28.7317,-95.2428,0109,0.3270
1981-06-29 00:30:00 UTC,2444784.520833,28.7317,-95.2428,0109,0.3270
1981-06-29 01:00:00 UTC,2444784.541667,28.7317,-95.2428,0109,0.3250
1981-06-29 01:30:00 UTC,2444784.562500,28.7317,-95.2428,0109,0.3240
1981-06-29 02:00:00 UTC,2444784.583333,28.7317,-95.2428,0109,0.3240
1981-06-29 02:30:00 UTC,2444784.604167,28.7317,-95.2428,0109,0.3230
1981-06-29 03:00:00 UTC,2444784.625000,28.7317,-95.2428,0109,0.3220
1981-06-29 03:30:00 UTC,2444784.645833,28.7317,-95.2428,0109,0.3210
1981-06-29 04:00:00 UTC,2444784.666667,28.7317,-95.2428,0109,0.3210
1981-06-29 04:30:00 UTC,2444784.687500,28.7317,-95.2428,0109,0.3220
1981-06-29 05:00:00 UTC,2444784.708333,28.7317,-95.2428,0109,0.3220
1981-06-29 05:30:00 UTC,2444784.729167,28.7317,-95.2428,0109,0.3220
1981-06-29 06:00:00 UTC,2444784.750000,28.7317,-95.2428,0109,0.3230
1981-06-29 06:30:00 UTC,2444784.770833,28.7317,-95.2428,0109,0.3230
1981-06-29 07:00:00 UTC,2444784.791667,28.7317,-95.2428,0109,0.3240
1981-06-29 07:30:00 UTC,2444784.812500,28.7317,-95.2428,0109,0.3230
1981-06-29 08:00:00 UTC,2444784.833333,28.7317,-95.2428,0109,0.3230
1981-06-29 08:30:00 UTC,2444784.854167,28.7317,-95.2428,0109,0.3230
1981-06-29 09:00:00 UTC,2444784.875000,28.7317,-95.2428,0109,0.3230
1981-06-29 09:30:00 UTC,2444784.895833,28.7317,-95.2428,0109,0.3220
1981-06-29 10:00:00 UTC,2444784.916667,28.7317,-95.2428,0109,0.3220
1981-06-29 10:30:00 UTC,2444784.937500,28.7317,-95.2428,0109,0.3210
1981-06-29 11:00:00 UTC,2444784.958333,28.7317,-95.2428,0109,0.3210
1981-06-29 11:30:00 UTC,2444784.979167,28.7317,-95.2428,0109,0.3210
1981-06-29 12:00:00 UTC,2444785.000000,28.7317,-95.2428,0109,0.3210
1981-06-29 12:30:00 UTC,2444785.020833,28.7317,-95.2428,0109,0.3220
1981-06-29 13:00:00 UTC,2444785.041667,28.7317,-95.2428,0109,0.3230
1981-06-29 13:30:00 UTC,2444785.062500,28.7317,-95.2428,0109,0.3240
1981-06-29 14:00:00 UTC,2444785.083333,28.7317,-95.2428,0109,0.3250
1981-06-29 14:30:00 UTC,2444785.104167,28.7317,-95.2428,0109,0.3260
1981-06-29 15:00:00 UTC,2444785.125000,28.7317,-95.2428,0109,0.3270
1981-06-29 15:30:00 UTC,2444785.145833,28.7317,-95.2428,0109,0.3260
1981-06-29 16:00:00 UTC,2444785.166667,28.7317,-95.2428,0109,0.3260
1981-06-29 16:30:00 UTC,2444785.187500,28.7317,-95.2428,0109,0.3260
1981-06-29 17:00:00 UTC,2444785.208333,28.7317,-95.2428,0109,0.3270
1981-06-29 17:30:00 UTC,2444785.229167,28.7317,-95.2428,0109,0.3260
1981-06-29 18:00:00 UTC,2444785.250000,28.7317,-95.2428,0109,0.3260
1981-06-29 18:30:00 UTC,2444785.270833,28.7317,-95.2428,0109,0.3250
1981-06-29 19:00:00 UTC,2444785.291667,28.7317,-95.2428,0109,0.3250
1981-06-29 19:30:00 UTC,2444785.312500,28.7317,-95.2428,0109,0.3260
1981-06-29 20:00:00 UTC,2444785.333333,28.7317,-95.2428,0109,0.3280
1981-06-29 20:30:00 UTC,2444785.354167,28.7317,-95.2428,0109,0.3290
1981-06-29 21:00:00 UTC,2444785.375000,28.7317,-95.2428,0109,0.3300
1981-06-29 21:30:00 UTC,2444785.395833,28.7317,-95.2428,0109,0.3300
1981-06-29 22:00:00 UTC,2444785.416667,28.7317,-95.2428,0109,0.3300
1981-06-29 22:30:00 UTC,2444785.437500,28.7317,-95.2428,0109,0.3280
1981-06-29 23:00:00 UTC,2444785.458333,28.7317,-95.2428,0109,0.3260
1981-06-29 23:30:00 UTC,2444785.479167,28.7317,-95.2428,0109,0.3240
1981-06-30 00:00:00 UTC,2444785.500000,28.7317,-95.2428,0109,0.3230
1981-06-30 00:30:00 UTC,2444785.520833,28.7317,-95.2428,0109,0.3210
1981-06-30 01:00:00 UTC,2444785.541667,28.7317,-95.2428,0109,0.3190
1981-06-30 01:30:00 UTC,2444785.562500,28.7317,-95.2428,0109,0.3180
1981-06-30 02:00:00 UTC,2444785.583333,28.7317,-95.2428,0109,0.3180
1981-06-30 02:30:00 UTC,2444785.604167,28.7317,-95.2428,0109,0.3180
1981-06-30 03:00:00 UTC,2444785.625000,28.7317,-95.2428,0109,0.3170
1981-06-30 03:30:00 UTC,2444785.645833,28.7317,-95.2428,0109,0.3160
1981-06-30 04:00:00 UTC,2444785.666667,28.7317,-95.2428,0109,0.3160
1981-06-30 04:30:00 UTC,2444785.687500,28.7317,-95.2428,0109,0.3160
1981-06-30 05:00:00 UTC,2444785.708333,28.7317,-95.2428,0109,0.3160
1981-06-30 05:30:00 UTC,2444785.729167,28.7317,-95.2428,0109,0.3160
1981-06-30 06:00:00 UTC,2444785.750000,28.7317,-95.2428,0109,0.3160
1981-06-30 06:30:00 UTC,2444785.770833,28.7317,-95.2428,0109,0.3150
1981-06-30 07:00:00 UTC,2444785.791667,28.7317,-95.2428,0109,0.3160
1981-06-30 07:30:00 UTC,2444785.812500,28.7317,-95.2428,0109,0.3180
1981-06-30 08:00:00 UTC,2444785.833333,28.7317,-95.2428,0109,0.3220
1981-06-30 08:30:00 UTC,2444785.854167,28.7317,-95.2428,0109,0.3260
1981-06-30 09:00:00 UTC,2444785.875000,28.7317,-95.2428,0109,0.3300
1981-06-30 09:30:00 UTC,2444785.895833,28.7317,-95.2428,0109,0.3310
1981-06-30 10:00:00 UTC,2444785.916667,28.7317,-95.2428,0109,0.3310
1981-06-30 10:30:00 UTC,2444785.937500,28.7317,-95.2428,0109,0.3300
1981-06-30 11:00:00 UTC,2444785.958333,28.7317,-95.2428,0109,0.3290
1981-06-30 11:30:00 UTC,2444785.979167,28.7317,-95.2428,0109,0.3280
1981-06-30 12:00:00 UTC,2444786.000000,28.7317,-95.2428,0109,0.3280
1981-06-30 12:30:00 UTC,2444786.020833,28.7317,-95.2428,0109,0.3290
1981-06-30 13:00:00 UTC,2444786.041667,28.7317,-95.2428,0109,0.3310
1981-06-30 13:30:00 UTC,2444786.062500,28.7317,-95.2428,0109,0.3310
1981-06-30 14:00:00 UTC,2444786.083333,28.7317,-95.2428,0109,0.3300
1981-06-30 14:30:00 UTC,2444786.104167,28.7317,-95.2428,0109,0.3280
1981-06-30 15:00:00 UTC,2444786.125000,28.7317,-95.2428,0109,0.3270
1981-06-30 15:30:00 UTC,2444786.145833,28.7317,-95.2428,0109,0.3270
1981-06-30 16:00:00 UTC,2444786.166667,28.7317,-95.2428,0109,0.3270
1981-06-30 16:30:00 UTC,2444786.187500,28.7317,-95.2428,0109,0.3270
1981-06-30 17:00:00 UTC,2444786.208333,28.7317,-95.2428,0109,0.3280
1981-06-30 17:30:00 UTC,2444786.229167,28.7317,-95.2428,0109,0.3280
1981-06-30 18:00:00 UTC,2444786.250000,28.7317,-95.2428,0109,0.3290
1981-06-30 18:30:00 UTC,2444786.270833,28.7317,-95.2428,0109,0.3290
1981-06-30 19:00:00 UTC,2444786.291667,28.7317,-95.2428,0109,0.3270
1981-06-30 19:30:00 UTC,2444786.312500,28.7317,-95.2428,0109,0.3250
1981-06-30 20:00:00 UTC,2444786.333333,28.7317,-95.2428,0109,0.3240
1981-06-30 20:30:00 UTC,2444786.354167,28.7317,-95.2428,0109,0.3210
1981-06-30 21:00:00 UTC,2444786.375000,28.7317,-95.2428,0109,0.3150
1981-06-30 21:30:00 UTC,2444786.395833,28.7317,-95.2428,0109,0.3110
1981-06-30 22:00:00 UTC,2444786.416667,28.7317,-95.2428,0109,0.3110
1981-06-30 22:30:00 UTC,2444786.437500,28.7317,-95.2428,0109,0.3100
1981-06-30 23:00:00 UTC,2444786.458333,28.7317,-95.2428,0109,0.3100
1981-06-30 23:30:00 UTC,2444786.479167,28.7317,-95.2428,0109,0.3100
1981-07-01 00:00:00 UTC,2444786.500000,28.7317,-95.2428,0109,0.3120
1981-07-01 00:30:00 UTC,2444786.520833,28.7317,-95.2428,0109,0.3120
1981-07-01 01:00:00 UTC,2444786.541667,28.7317,-95.2428,0109,0.3120
1981-07-01 01:30:00 UTC,2444786.562500,28.7317,-95.2428,0109,0.3110
1981-07-01 02:00:00 UTC,2444786.583333,28.7317,-95.2428,0109,0.3110
1981-07-01 02:30:00 UTC,2444786.604167,28.7317,-95.2428,0109,0.3120
1981-07-01 03:00:00 UTC,2444786.625000,28.7317,-95.2428,0109,0.3130
1981-07-01 03:30:00 UTC,2444786.645833,28.7317,-95.2428,0109,0.3120
1981-07-01 04:00:00 UTC,2444786.666667,28.7317,-95.2428,0109,0.3120
1981-07-01 04:30:00 UTC,2444786.687500,28.7317,-95.2428,0109,0.3120
1981-07-01 05:00:00 UTC,2444786.708333,28.7317,-95.2428,0109,0.3120
1981-07-01 05:30:00 UTC,2444786.729167,28.7317,-95.2428,0109,0.3120
1981-07-01 06:00:00 UTC,2444786.750000,28.7317,-95.2428,0109,0.3120
1981-07-01 06:30:00 UTC,2444786.770833,28.7317,-95.2428,0109,0.3130
1981-07-01 07:00:00 UTC,2444786.791667,28.7317,-95.2428,0109,0.3130
1981-07-01 07:30:00 UTC,2444786.812500,28.7317,-95.2428,0109,0.3140
1981-07-01 08:00:00 UTC,2444786.833333,28.7317,-95.2428,0109,0.3140
1981-07-01 08:30:00 UTC,2444786.854167,28.7317,-95.2428,0109,0.3140
1981-07-01 09:00:00 UTC,2444786.875000,28.7317,-95.2428,0109,0.3150
1981-07-01 09:30:00 UTC,2444786.895833,28.7317,-95.2428,0109,0.3160
1981-07-01 10:00:00 UTC,2444786.916667,28.7317,-95.2428,0109,0.3190
1981-07-01 10:30:00 UTC,2444786.937500,28.7317,-95.2428,0109,0.3200
1981-07-01 11:00:00 UTC,2444786.958333,28.7317,-95.2428,0109,0.3200
1981-07-01 11:30:00 UTC,2444786.979167,28.7317,-95.2428,0109,0.3180
1981-07-01 12:00:00 UTC,2444787.000000,28.7317,-95.2428,0109,0.3170
1981-07-01 12:30:00 UTC,2444787.020833,28.7317,-95.2428,0109,0.3170
1981-07-01 13:00:00 UTC,2444787.041667,28.7317,-95.2428,0109,0.3170
1981-07-01 13:30:00 UTC,2444787.062500,28.7317,-95.2428,0109,0.3180
1981-07-01 14:00:00 UTC,2444787.083333,28.7317,-95.2428,0109,0.3200
1981-07-01 14:30:00 UTC,2444787.104167,28.7317,-95.2428,0109,0.3210
1981-07-01 15:00:00 UTC,2444787.125000,28.7317,-95.2428,0109,0.3200
1981-07-01 15:30:00 UTC,2444787.145833,28.7317,-95.2428,0109,0.3190
1981-07-01 16:00:00 UTC,2444787.166667,28.7317,-95.2428,0109,0.3180
1981-07-01 16:30:00 UTC,2444787.187500,28.7317,-95.2428,0109,0.3180
1981-07-01 17:00:00 UTC,2444787.208333,28.7317,-95.2428,0109,0.3170
1981-07-01 17:30:00 UTC,2444787.229167,28.7317,-95.2428,0109,0.3150
1981-07-01 18:00:00 UTC,2444787.250000,28.7317,-95.2428,0109,0.3140
1981-07-01 18:30:00 UTC,2444787.270833,28.7317,-95.2428,0109,0.3140
1981-07-01 19:00:00 UTC,2444787.291667,28.7317,-95.2428,0109,0.3140
1981-07-01 19:30:00 UTC,2444787.312500,28.7317,-95.2428,0109,0.3140
1981-07-01 20:00:00 UTC,2444787.333333,28.7317,-95.2428,0109,0.3140
1981-07-01 20:30:00 UTC,2444787.354167,28.7317,-95.2428,0109,0.3130
1981-07-01 21:00:00 UTC,2444787.375000,28.7317,-95.2428,0109,0.3130
1981-07-01 21:30:00 UTC,2444787.395833,28.7317,-95.2428,0109,0.3120
1981-07-01 22:00:00 UTC,2444787.416667,28.7317,-95.2428,0109,0.3120
1981-07-01 22:30:00 UTC,2444787.437500,28.7317,-95.2428,0109,0.3120
1981-07-01 23:00:00 UTC,2444787.458333,28.7317,-95.2428,0109,0.3120
1981-07-01 23:30:00 UTC,2444787.479167,28.7317,-95.2428,0109,0.3110
1981-07-02 00:00:00 UTC,2444787.500000,28.7317,-95.2428,0109,0.3110
1981-07-02 00:30:00 UTC,2444787.520833,28.7317,-95.2428,0109,0.3110
1981-07-02 01:00:00 UTC,2444787.541667,28.7317,-95.2428,0109,0.3110
1981-07-02 01:30:00 UTC,2444787.562500,28.7317,-95.2428,0109,0.3110
1981-07-02 02:00:00 UTC,2444787.583333,28.7317,-95.2428,0109,0.3110
1981-07-02 02:30:00 UTC,2444787.604167,28.7317,-95.2428,0109,0.3110
1981-07-02 03:00:00 UTC,2444787.625000,28.7317,-95.2428,0109,0.3110
1981-07-02 03:30:00 UTC,2444787.645833,28.7317,-95.2428,0109,0.3110
1981-07-02 04:00:00 UTC,2444787.666667,28.7317,-95.2428,0109,0.3110
1981-07-02 04:30:00 UTC,2444787.687500,28.7317,-95.2428,0109,0.3110
1981-07-02 05:00:00 UTC,2444787.708333,28.7317,-95.2428,0109,0.3110
1981-07-02 05:30:00 UTC,2444787.729167,28.7317,-95.2428,0109,0.3110
1981-07-02 06:00:00 UTC,2444787.750000,28.7317,-95.2428,0109,0.3110
1981-07-02 06:30:00 UTC,2444787.770833,28.7317,-95.2428,0109,0.3110
1981-07-02 07:00:00 UTC,2444787.791667,28.7317,-95.2428,0109,0.3110
1981-07-02 07:30:00 UTC,2444787.812500,28.7317,-95.2428,0109,0.3110
1981-07-02 08:00:00 UTC,2444787.833333,28.7317,-95.2428,0109,0.3110
1981-07-02 08:30:00 UTC,2444787.854167,28.7317,-95.2428,0109,0.3110
1981-07-02 09:00:00 UTC,2444787.875000,28.7317,-95.2428,0109,0.3120
1981-07-02 09:30:00 UTC,2444787.895833,28.7317,-95.2428,0109,0.3120
1981-07-02 10:00:00 UTC,2444787.916667,28.7317,-95.2428,0109,0.3130
1981-07-02 10:30:00 UTC,2444787.937500,28.7317,-95.2428,0109,0.3130
1981-07-02 11:00:00 UTC,2444787.958333,28.7317,-95.2428,0109,0.3130
1981-07-02 11:30:00 UTC,2444787.979167,28.7317,-95.2428,0109,0.3130
1981-07-02 12:00:00 UTC,2444788.000000,28.7317,-95.2428,0109,0.3130
1981-07-02 12:30:00 UTC,2444788.020833,28.7317,-95.2428,0109,0.3130
1981-07-02 13:00:00 UTC,2444788.041667,28.7317,-95.2428,0109,0.3130
1981-07-02 13:30:00 UTC,2444788.062500,28.7317,-95.2428,0109,0.3130
1981-07-02 14:00:00 UTC,2444788.083333,28.7317,-95.2428,0109,0.3140
1981-07-02 14:30:00 UTC,2444788.104167,28.7317,-95.2428,0109,0.3140
1981-07-02 15:00:00 UTC,2444788.125000,28.7317,-95.2428,0109,0.3140
1981-07-02 15:30:00 UTC,2444788.145833,28.7317,-95.2428,0109,0.3140
1981-07-02 16:00:00 UTC,2444788.166667,28.7317,-95.2428,0109,0.3140
1981-07-02 16:30:00 UTC,2444788.187500,28.7317,-95.2428,0109,0.3140
1981-07-02 17:00:00 UTC,2444788.208333,28.7317,-95.2428,0109,0.3150
1981-07-02 17:30:00 UTC,2444788.229167,28.7317,-95.2428,0109,0.3150
1981-07-02 18:00:00 UTC,2444788.250000,28.7317,-95.2428,0109,0.3150
1981-07-02 18:30:00 UTC,2444788.270833,28.7317,-95.2428,0109,0.3150
1981-07-02 19:00:00 UTC,2444788.291667,28.7317,-95.2428,0109,0.3150
1981-07-02 19:30:00 UTC,2444788.312500,28.7317,-95.2428,0109,0.3150
1981-07-02 20:00:00 UTC,2444788.333333,28.7317,-95.2428,0109,0.3150
1981-07-02 20:30:00 UTC,2444788.354167,28.7317,-95.2428,0109,0.3150
1981-07-02 21:00:00 UTC,2444788.375000,28.7317,-95.2428,0109,0.3160
1981-07-02 21:30:00 UTC,2444788.395833,28.7317,-95.2428,0109,0.3170
1981-07-02 22:00:00 UTC,2444788.416667,28.7317,-95.2428,0109,0.3170
1981-07-02 22:30:00 UTC,2444788.437500,28.7317,-95.2428,0109,0.3170
1981-07-02 23:00:00 UTC,2444788.458333,28.7317,-95.2428,0109,0.3170
1981-07-02 23:30:00 UTC,2444788.479167,28.7317,-95.2428,0109,0.3170
1981-07-03 00:00:00 UTC,2444788.500000,28.7317,-95.2428,0109,0.3170
1981-07-03 00:30:00 UTC,2444788.520833,28.7317,-95.2428,0109,0.3160
1981-07-03 01:00:00 UTC,2444788.541667,28.7317,-95.2428,0109,0.3160
1981-07-03 01:30:00 UTC,2444788.562500,28.7317,-95.2428,0109,0.3160
1981-07-03 02:00:00 UTC,2444788.583333,28.7317,-95.2428,0109,0.3160
1981-07-03 02:30:00 UTC,2444788.604167,28.7317,-95.2428,0109,0.3160
1981-07-03 03:00:00 UTC,2444788.625000,28.7317,-95.2428,0109,0.3150
1981-07-03 03:30:00 UTC,2444788.645833,28.7317,-95.2428,0109,0.3150
1981-07-03 04:00:00 UTC,2444788.666667,28.7317,-95.2428,0109,0.3160
1981-07-03 04:30:00 UTC,2444788.687500,28.7317,-95.2428,0109,0.3170
1981-07-03 05:00:00 UTC,2444788.708333,28.7317,-95.2428,0109,0.3170
1981-07-03 05:30:00 UTC,2444788.729167,28.7317,-95.2428,0109,0.3170
1981-07-03 06:00:00 UTC,2444788.750000,28.7317,-95.2428,0109,0.3180
1981-07-03 06:30:00 UTC,2444788.770833,28.7317,-95.2428,0109,0.3170
1981-07-03 07:00:00 UTC,2444788.791667,28.7317,-95.2428,0109,0.3170
1981-07-03 07:30:00 UTC,2444788.812500,28.7317,-95.2428,0109,0.3170
1981-07-03 08:00:00 UTC,2444788.833333,28.7317,-95.2428,0109,0.3170
1981-07-03 08:30:00 UTC,2444788.854167,28.7317,-95.2428,0109,0.3180
1981-07-03 09:00:00 UTC,2444788.875000,28.7317,-95.2428,0109,0.3190
1981-07-03 09:30:00 UTC,2444788.895833,28.7317,-95.2428,0109,0.3190
1981-07-03 10:00:00 UTC,2444788.916667,28.7317,-95.2428,0109,0.3200
1981-07-03 10:30:00 UTC,2444788.937500,28.7317,-95.2428,0109,0.3200
1981-07-03 11:00:00 UTC,2444788.958333,28.7317,-95.2428,0109,0.3200
1981-07-03 11:30:00 UTC,2444788.979167,28.7317,-95.2428,0109,0.3200
1981-07-03 12:00:00 UTC,2444789.000000,28.7317,-95.2428,0109,0.3200
1981-07-03 12:30:00 UTC,2444789.020833,28.7317,-95.2428,0109,0.3200
1981-07-03 13:00:00 UTC,2444789.041667,28.7317,-95.2428,0109,0.3200
1981-07-03 13:30:00 UTC,2444789.062500,28.7317,-95.2428,0109,0.3200
1981-07-03 14:00:00 UTC,2444789.083333,28.7317,-95.2428,0109,0.3190
1981-07-03 14:30:00 UTC,2444789.104167,28.7317,-95.2428,0109,0.3200
1981-07-03 15:00:00 UTC,2444789.125000,28.7317,-95.2428,0109,0.3190
1981-07-03 15:30:00 UTC,2444789.145833,28.7317,-95.2428,0109,0.3170
1981-07-03 16:00:00 UTC,2444789.166667,28.7317,-95.2428,0109,0.3160
1981-07-03 16:30:00 UTC,2444789.187500,28.7317,-95.2428,0109,0.3160
1981-07-03 17:00:00 UTC,2444789.208333,28.7317,-95.2428,0109,0.3170
1981-07-03 17:30:00 UTC,2444789.229167,28.7317,-95.2428,0109,0.3170
1981-07-03 18:00:00 UTC,2444789.250000,28.7317,-95.2428,0109,0.3160
1981-07-03 18:30:00 UTC,2444789.270833,28.7317,-95.2428,0109,0.3170
1981-07-03 19:00:00 UTC,2444789.291667,28.7317,-95.2428,0109,0.3170
1981-07-03 19:30:00 UTC,2444789.312500,28.7317,-95.2428,0109,0.3180
1981-07-03 20:00:00 UTC,2444789.333333,28.7317,-95.2428,0109,0.3180
1981-07-03 20:30:00 UTC,2444789.354167,28.7317,-95.2428,0109,0.3180
1981-07-03 21:00:00 UTC,2444789.375000,28.7317,-95.2428,0109,0.3190
1981-07-03 21:30:00 UTC,2444789.395833,28.7317,-95.2428,0109,0.3210
1981-07-03 22:00:00 UTC,2444789.416667,28.7317,-95.2428,0109,0.3220
1981-07-03 22:30:00 UTC,2444789.437500,28.7317,-95.2428,0109,0.3230
1981-07-03 23:00:00 UTC,2444789.458333,28.7317,-95.2428,0109,0.3260
1981-07-03 23:30:00 UTC,2444789.479167,28.7317,-95.2428,0109,0.3290
1981-07-04 00:00:00 UTC,2444789.500000,28.7317,-95.2428,0109,0.3310
1981-07-04 00:30:00 UTC,2444789.520833,28.7317,-95.2428,0109,0.3320
1981-07-04 01:00:00 UTC,2444789.541667,28.7317,-95.2428,0109,0.3330
1981-07-04 01:30:00 UTC,2444789.562500,28.7317,-95.2428,0109,0.3340
1981-07-04 02:00:00 UTC,2444789.583333,28.7317,-95.2428,0109,0.3330
1981-07-04 02:30:00 UTC,2444789.604167,28.7317,-95.2428,0109,0.3320
1981-07-04 03:00:00 UTC,2444789.625000,28.7317,-95.2428,0109,0.3300
1981-07-04 03:30:00 UTC,2444789.645833,28.7317,-95.2428,0109,0.3280
1981-07-04 04:00:00 UTC,2444789.666667,28.7317,-95.2428,0109,0.3260
1981-07-04 04:30:00 UTC,2444789.687500,28.7317,-95.2428,0109,0.3250
1981-07-04 05:00:00 UTC,2444789.708333,28.7317,-95.2428,0109,0.3230
1981-07-04 05:30:00 UTC,2444789.729167,28.7317,-95.2428,0109,0.3230
1981-07-04 06:00:00 UTC,2444789.750000,28.7317,-95.2428,0109,0.3240
1981-07-04 06:30:00 UTC,2444789.770833,28.7317,-95.2428,0109,0.3240
1981-07-04 07:00:00 UTC,2444789.791667,28.7317,-95.2428,0109,0.3240
1981-07-04 07:30:00 UTC,2444789.812500,28.7317,-95.2428,0109,0.3250
1981-07-04 08:00:00 UTC,2444789.833333,28.7317,-95.2428,0109,0.3250
1981-07-04 08:30:00 UTC,2444789.854167,28.7317,-95.2428,0109,0.3250
1981-07-04 09:00:00 UTC,2444789.875000,28.7317,-95.2428,0109,0.3260
1981-07-04 09:30:00 UTC,2444789.895833,28.7317,-95.2428,0109,0.3280
1981-07-04 10:00:00 UTC,2444789.916667,28.7317,-95.2428,0109,0.3270
1981-07-04 10:30:00 UTC,2444789.937500,28.7317,-95.2428,0109,0.3270
1981-07-04 11:00:00 UTC,2444789.958333,28.7317,-95.2428,0109,0.3260
1981-07-04 11:30:00 UTC,2444789.979167,28.7317,-95.2428,0109,0.3250
1981-07-04 12:00:00 UTC,2444790.000000,28.7317,-95.2428,0109,0.3240
1981-07-04 12:30:00 UTC,2444790.020833,28.7317,-95.2428,0109,0.3230
1981-07-04 13:00:00 UTC,2444790.041667,28.7317,-95.2428,0109,0.3190
1981-07-04 13:30:00 UTC,2444790.062500,28.7317,-95.2428,0109,0.3170
1981-07-04 14:00:00 UTC,2444790.083333,28.7317,-95.2428,0109,0.3170
1981-07-04 14:30:00 UTC,2444790.104167,28.7317,-95.2428,0109,0.3180
1981-07-04 15:00:00 UTC,2444790.125000,28.7317,-95.2428,0109,0.3180
1981-07-04 15:30:00 UTC,2444790.145833,28.7317,-95.2428,0109,0.3180
1981-07-04 16:00:00 UTC,2444790.166667,28.7317,-95.2428,0109,0.3190
1981-07-04 16:30:00 UTC,2444790.187500,28.7317,-95.2428,0109,0.3190
1981-07-04 17:00:00 UTC,2444790.208333,28.7317,-95.2428,0109,0.3190
1981-07-04 17:30:00 UTC,2444790.229167,28.7317,-95.2428,0109,0.3200
1981-07-04 18:00:00 UTC,2444790.250000,28.7317,-95.2428,0109,0.3210
1981-07-04 18:30:00 UTC,2444790.270833,28.7317,-95.2428,0109,0.3210
1981-07-04 19:00:00 UTC,2444790.291667,28.7317,-95.2428,0109,0.3220
1981-07-04 19:30:00 UTC,2444790.312500,28.7317,-95.2428,0109,0.3210
1981-07-04 20:00:00 UTC,2444790.333333,28.7317,-95.2428,0109,0.3220
1981-07-04 20:30:00 UTC,2444790.354167,28.7317,-95.2428,0109,0.3280
1981-07-04 21:00:00 UTC,2444790.375000,28.7317,-95.2428,0109,0.3340
1981-07-04 21:30:00 UTC,2444790.395833,28.7317,-95.2428,0109,0.3360
1981-07-04 22:00:00 UTC,2444790.416667,28.7317,-95.2428,0109,0.3370
1981-07-04 22:30:00 UTC,2444790.437500,28.7317,-95.2428,0109,0.3380
1981-07-04 23:00:00 UTC,2444790.458333,28.7317,-95.2428,0109,0.3380
1981-07-04 23:30:00 UTC,2444790.479167,28.7317,-95.2428,0109,0.3380
1981-07-05 00:00:00 UTC,2444790.500000,28.7317,-95.2428,0109,0.3380
1981-07-05 00:30:00 UTC,2444790.520833,28.7317,-95.2428,0109,0.3390
1981-07-05 01:00:00 UTC,2444790.541667,28.7317,-95.2428,0109,0.3380
1981-07-05 01:30:00 UTC,2444790.562500,28.7317,-95.2428,0109,0.3380
1981-07-05 02:00:00 UTC,2444790.583333,28.7317,-95.2428,0109,0.3380
1981-07-05 02:30:00 UTC,2444790.604167,28.7317,-95.2428,0109,0.3390
1981-07-05 03:00:00 UTC,2444790.625000,28.7317,-95.2428,0109,0.3390
1981-07-05 03:30:00 UTC,2444790.645833,28.7317,-95.2428,0109,0.3410
1981-07-05 04:00:00 UTC,2444790.666667,28.7317,-95.2428,0109,0.3420
1981-07-05 04:30:00 UTC,2444790.687500,28.7317,-95.2428,0109,0.3410